Flag for U.S.A. Weather past 2 weeks in Kalispell, Montana, U.S.A.

Now
58 °F

Clear.


Feels Like: 55 °F
Forecast: 52 / 63 °F
Wind: 15 mph from Northeast

Location: Kalispell - Glacier Park International

Current Time: Aug 21, 2014 at 10:40:15 PM

Latest Report: Aug 21, 2014 at 9:55 PM


Visibility: 10 mi

Pressure: 30.05 "Hg

Humidity: 67%

Dew point: 47 °F

Location of KalispellLocation

Historic Weather in Kalispell — Graph

°F

Kalispell temperature yesterday

Maximum temperature yesterday: 71 °F (at 3:55 PM)
Minimum temperature yesterday: 55 °F (at 6:55 AM)
Average temperature yesterday: 61 °F

Past Weeks' High & Low Weather Summary

 TemperatureHumidityPressure
High93 °F (Aug 11, 6:55 PM)100% (Aug 15, 7:55 AM)30.19 "Hg (Aug 15, 7:55 AM)
Low47 °F (Aug 7, 6:55 AM)14% (Aug 11, 6:55 PM)29.67 "Hg (Aug 19, 2:55 PM)
Average66 °F65%29.96 "Hg
* Reported Aug 6 8:55 PM — Aug 21 8:55 PM, Kalispell, Weather by CustomWeather, © 2014

Note: Actual official high and low records may vary slightly from our data, if they occured in-between our weather recording intervals... More about our weather records

Advertising

Kalispell weather history for previous 24 hours

 ConditionsComfort  
Time TempWeatherWind HumidityBarometerVisibility
8:55 PM
Aug 21
59 °FSunny.12 mph64%30.03 "Hg10 mi
7:55 PM62 °FSunny.15 mph60%30.01 "Hg10 mi
6:55 PM64 °FPassing clouds.16 mph58%30.01 "Hg10 mi
5:55 PM66 °FSunny.18 mph54%30.01 "Hg10 mi
4:55 PM67 °FSunny.16 mph53%30.02 "Hg10 mi
3:55 PM67 °FOvercast.17 mph55%30.03 "Hg10 mi
2:55 PM62 °FOvercast.16 mph62%30.05 "Hg10 mi
1:55 PM61 °FOvercast.12 mph65%30.06 "Hg10 mi
12:55 PM61 °FOvercast.15 mph65%30.06 "Hg10 mi
11:55 AM59 °FOvercast.10 mph78%30.06 "Hg10 mi
10:55 AM56 °FLight rain. Overcast.10 mph84%30.06 "Hg10 mi
9:55 AM55 °FLight rain. Mostly cloudy.10 mph83%30.04 "Hg5 mi
8:55 AM57 °FOvercast.9 mph78%30.02 "Hg10 mi
7:55 AM56 °FOvercast.10 mph81%30.01 "Hg10 mi
6:55 AM55 °FMostly cloudy.8 mph83%29.99 "Hg10 mi
5:55 AM55 °FOvercast.7 mph87%29.99 "Hg10 mi
4:55 AM55 °FOvercast.9 mph87%29.97 "Hg10 mi
3:55 AM56 °FOvercast.12 mph87%29.96 "Hg10 mi
2:55 AM55 °FMostly cloudy.3 mph93%29.95 "Hg10 mi
1:55 AM58 °FLight rain. Overcast.8 mph75%29.92 "Hg10 mi
12:55 AM57 °FPassing clouds.10 mph74%29.90 "Hg10 mi
11:55 PM
Aug 20
59 °FPartly cloudy.14 mph75%29.89 "Hg10 mi
10:55 PM55 °FPassing clouds.6 mph96%29.89 "Hg10 mi
Weather by CustomWeather, © 2014

See weather overviewHow to use our weather pages